Location: Oberkirch
(48.5323°N, 8.0787°E)
Time: 15:02:30
(UTC+00:00)

S-56A Canister/Altair - Pass Details

Date: 21 February 2026
Orbit: 633 x 2484 km, 38.9° (Epoch: 7 March)

Event Time Altitude Azimuth Distance (km) Brightness Sun altitude
Exits shadow 03:14:08 25° 182° (S) 2,931 10.2 -31.8°
Drops below altitude 10° 03:20:40 10° 152° (SSE) 4,408 11.4 -30.8°
Sets 03:25:26 0° 142° (SE) 5,683 12.2 -30.1°
